Satellite-Ground Cal/Val Region Overpasses Predictions

Prediction of Satellite NPP Overpassing Cal/Val Region: PacNW

Region Location: (Latitude: 10.00, Longitude: 139.50) to (Latitude: 22.70, Longitude: 165.60).

Table of predicted overpasses for the next 14.0 days since TLE Epoch: 5/7/2022
Interval Starting Time Starting Location Ending Time Ending Location
1 05/07/2022 02:21:35 ( 15.00, 163.56) 05/07/2022 02:23:46 ( 22.68, 161.70)
2 05/07/2022 14:52:03 ( 22.68, 161.95) 05/07/2022 14:55:39 ( 10.00, 158.94)
3 05/08/2022 03:42:38 ( 10.02, 144.10) 05/08/2022 03:46:13 ( 22.65, 141.10)
4 05/08/2022 14:34:19 ( 18.10, 165.59) 05/08/2022 14:36:36 ( 10.05, 163.71)
5 05/08/2022 16:14:31 ( 22.66, 141.34) 05/08/2022 16:16:40 ( 15.09, 139.50)
6 05/09/2022 03:23:36 ( 10.04, 148.86) 05/09/2022 03:27:11 ( 22.66, 145.86)
7 05/09/2022 15:55:28 ( 22.65, 146.09) 05/09/2022 15:59:03 ( 10.03, 143.09)
8 05/10/2022 03:04:33 ( 10.05, 153.62) 05/10/2022 03:08:08 ( 22.67, 150.62)
9 05/10/2022 15:36:25 ( 22.70, 150.87) 05/10/2022 15:40:01 ( 10.02, 147.85)
10 05/11/2022 02:45:30 ( 10.00, 158.39) 05/11/2022 02:49:06 ( 22.68, 155.37)
11 05/11/2022 15:17:22 ( 22.68, 155.62) 05/11/2022 15:20:58 ( 10.00, 152.61)
12 05/12/2022 02:26:27 ( 10.02, 163.15) 05/12/2022 02:30:03 ( 22.70, 160.13)
13 05/12/2022 14:58:20 ( 22.67, 160.38) 05/12/2022 15:01:55 ( 10.05, 157.38)
14 05/13/2022 02:10:12 ( 19.84, 165.60) 05/13/2022 02:11:00 ( 22.66, 164.90)
15 05/13/2022 03:48:55 ( 10.04, 142.53) 05/13/2022 03:52:30 ( 22.67, 139.53)
16 05/13/2022 14:39:17 ( 22.65, 165.14) 05/13/2022 14:42:52 ( 10.03, 162.14)
17 05/13/2022 16:20:47 ( 22.64, 139.76) 05/13/2022 16:21:05 ( 21.59, 139.50)
18 05/14/2022 03:29:51 ( 10.00, 147.30) 05/14/2022 03:33:27 ( 22.68, 144.28)
19 05/14/2022 16:01:44 ( 22.68, 144.54) 05/14/2022 16:05:20 ( 10.00, 141.52)
20 05/15/2022 03:10:49 ( 10.02, 152.06) 05/15/2022 03:14:24 ( 22.64, 149.06)
21 05/15/2022 15:42:41 ( 22.67, 149.29) 05/15/2022 15:46:16 ( 10.05, 146.29)
22 05/16/2022 02:51:46 ( 10.04, 156.82) 05/16/2022 02:55:21 ( 22.66, 153.81)
23 05/16/2022 15:23:39 ( 22.65, 154.05) 05/16/2022 15:27:14 ( 10.03, 151.05)
24 05/17/2022 02:32:44 ( 10.06, 161.57) 05/17/2022 02:36:19 ( 22.68, 158.57)
25 05/17/2022 15:04:36 ( 22.69, 158.82) 05/17/2022 15:08:12 ( 10.01, 155.80)
26 05/18/2022 02:14:35 ( 13.25, 165.60) 05/18/2022 02:17:15 ( 22.64, 163.34)
27 05/18/2022 03:55:10 ( 10.03, 140.97) 05/18/2022 03:56:57 ( 16.32, 139.51)
28 05/18/2022 14:45:33 ( 22.66, 163.58) 05/18/2022 14:49:08 ( 10.04, 160.58)
29 05/19/2022 03:36:08 ( 10.05, 145.72) 05/19/2022 03:39:43 ( 22.68, 142.72)
30 05/19/2022 14:29:47 ( 11.14, 165.59) 05/19/2022 14:30:06 ( 10.02, 165.33)
31 05/19/2022 16:08:00 ( 22.69, 142.97) 05/19/2022 16:11:36 ( 10.01, 139.96)
32 05/20/2022 03:17:04 ( 10.02, 150.49) 05/20/2022 03:20:40 ( 22.70, 147.48)
